#timestamp,LO_Frequency,Hit,StdDev 
1553932815.5,286047000.8,N
1553932835.3,286046998.5,N
1553932855.2,286046999.9,N
1553932875.0,286047000.5,N
1553932875.9,286047000.5,N
1553932895.8,286046998.6,N
1553932915.6,286046998.2,N
1553932935.4,286046998.5,N
1553932955.3,286047002.6,N
1553932975.1,286047000.5,N
1553932995.9,286046999.9,N
1553933015.0,286046999.7,N
1553933015.9,286046999.7,N
1553933035.8,286047001.4,N
1553933055.6,286046999.7,N
1553933075.4,286047000.0,N
1553933095.3,286047002.6,N
1553933115.1,286047001.9,N
1553933135.9,286047003.5,N
1553933155.7,286047004.2,Y
1553933175.5,286047002.8,P
1553933195.4,286047000.5,N
1553933215.2,286047001.1,N
1553933235.0,286046999.2,N
1553933235.9,286046999.2,N
1553933255.8,286046996.6,N
1553933275.6,286046999.6,N
1553933295.5,286047001.2,N
1553933315.3,286046998.1,N
1553933335.1,286047002.7,N
1553933355.9,286047001.2,N
1553933375.7,286047000.2,N
1553933395.5,286046998.4,N
1553933415.5,286047001.8,N
1553933435.3,286047004.3,N
1553933455.2,286047002.3,N
1553933475.9,286047002.3,N
1553933495.7,286047001.1,N
1553933515.6,286046999.1,N
1553933535.4,286047001.1,N
1553933555.2,286047002.8,N
1553933575.1,286047001.9,N
1553933576.0,286047001.9,N
1553933595.8,286047002.1,N
1553933615.7,286047002.7,N
1553933635.5,286047002.7,N
1553933655.3,286047001.5,N
1553933675.2,286047004.4,N
1553933695.0,286047004.2,N
1553933695.9,286047004.2,N
1553933715.7,286047003.9,N
1553933735.6,286047003.6,N
1553933755.7,286047004.1,N
1553933775.5,286047003.4,N
1553933795.3,286047003.6,N
1553933815.2,286047004.2,N
1553933835.0,286047001.4,N
1553933835.9,286047001.4,N
1553933855.8,286047003.7,N
1553933875.6,286047004.4,N
1553933895.4,286047001.3,N
1553933915.3,286047002.1,N
1553933935.1,286047002.2,N
1553933936.0,286047002.2,N
1553933955.8,286047002.6,N
1553933975.4,286047002.1,N
1553933995.3,286047001.9,N
1553934015.1,286047001.4,N
1553934035.8,286047003.8,Y
1553934055.7,286047000.9,P
1553934075.5,286047001.1,N
1553934095.4,286046998.5,N
1553934115.2,286046998.3,N
1553934135.0,286046998.2,N
1553934135.9,286046998.2,N
1553934155.8,286046998.9,N
1553934175.6,286046997.4,N
1553934195.4,286046995.0,Y
1553934215.3,286046996.1,P
1553934235.1,286046995.4,N
1553934255.9,286046998.0,N
1553934275.8,286046995.4,N
1553934295.6,286046997.8,N
1553934315.5,286046997.6,N
1553934335.3,286046995.4,Y
1553934355.2,286046999.2,P
1553934375.9,286046998.7,N
1553934395.7,286047001.2,N
1553934415.6,286047001.1,N
1553934435.4,286046998.2,N
1553934455.3,286046998.8,N
1553934475.1,286046998.3,N
1553934476.0,286046998.3,N
1553934495.8,286046998.6,N
1553934515.7,286046998.6,N
1553934535.5,286046999.4,N
1553934555.4,286046997.2,N
1553934575.2,286046999.2,N
1553934595.2,286046996.7,N
1553934615.0,286046995.4,Y
1553934615.9,286046995.4,P
1553934635.8,286046996.8,N
1553934655.6,286046997.1,N
1553934675.4,286046997.9,N
1553934695.2,286046996.0,Y
1553934715.1,286046997.0,P
1553934716.0,286046997.0,P
1553934735.8,286046999.6,P
1553934755.7,286046999.1,N
1553934775.5,286046997.6,N
1553934795.3,286046997.2,N
1553934815.2,286046994.9,Y
1553934835.0,286047000.9,P
1553934835.9,286047000.9,N
1553934855.8,286047002.6,N
1553934875.6,286047001.6,N
1553934895.4,286047004.3,N
1553934915.3,286047001.8,N
1553934935.1,286047001.8,N
1553934955.8,286047001.3,N
1553934975.7,286047002.0,N
1553934995.5,286047000.0,N
1553935015.4,286047000.0,N
1553935035.2,286047002.2,N
1553935055.0,286047002.6,N
1553935055.9,286047002.6,N
1553935075.8,286047002.5,N
1553935095.6,286047001.9,N
1553935115.4,286047004.3,Y
1553935135.3,286046999.8,P
1553935155.1,286046999.7,N
1553935175.9,286047001.1,N
1553935195.7,286046998.6,N
1553935215.5,286046999.5,N
1553935235.4,286046997.7,N
1553935255.2,286046997.0,N
1553935275.1,286046997.1,N
1553935306.0,286046998.1,E
1553935315.0,286047001.1,N
1553935315.9,286047001.1,P
1553935335.8,286047002.4,P
1553935355.7,286047002.0,Y
1553935375.5,286047002.4,P
1553935395.3,286047002.7,P
1553935415.2,286047000.3,N
1553935435.0,286047000.1,N
1553935435.9,286047000.1,N
1553935455.7,286046999.9,N
1553935475.6,286047001.0,N
1553935495.4,286047000.8,N
1553935515.3,286046998.5,N
1553935535.1,286047000.6,N
1553935536.0,286047000.6,N
1553935555.8,286046998.8,N
1553935575.7,286046997.2,N
1553935595.5,286046995.5,Y
1553935615.3,286046997.5,P
1553935635.2,286046997.1,N
1553935655.0,286046997.0,N
1553935655.9,286046997.0,N
1553935675.8,286046999.0,N
1553935695.6,286046999.2,N
1553935715.4,286046997.3,N
1553935735.3,286046996.7,N
1553935755.1,286046998.2,N
1553935775.8,286046998.3,N
1553935795.7,286046999.3,N
1553935815.5,286046997.0,N
1553935835.4,286046998.0,N
1553935855.2,286046997.7,N
1553935875.0,286046996.2,Y
1553935875.9,286046996.2,P
1553935895.8,286046995.0,P
1553935915.6,286046995.0,P
1553935935.4,286046996.2,Y
1553935955.3,286047000.7,P
1553935975.1,286047000.0,N
1553935995.9,286047001.2,N
1553936015.7,286046998.6,N
1553936035.5,286046999.4,N
1553936055.4,286046998.1,N
1553936075.2,286047000.6,N
1553936095.0,286047000.4,N
1553936096.0,286047000.4,N
1553936115.8,286047000.5,N
1553936135.6,286047001.0,N
1553936155.5,286047002.4,N
1553936175.3,286046999.7,N
1553936195.1,286046999.7,N
1553936215.9,286047002.7,N
1553936235.7,286047002.6,N
1553936255.6,286047002.5,N
1553936275.4,286047002.5,N
1553936295.2,286047001.4,N
1553936315.1,286047001.8,N
1553936316.0,286047001.8,N
1553936335.8,286047004.0,N
1553936355.7,286047003.9,N
1553936375.5,286047003.6,N
1553936395.3,286047004.2,N
